This demonstration page uses our WeatherBlox Daily Observations layout. Learn more.

Left ArrowRight Arrow

47.50024, -111.30081

Hourly Observations for March 9, 2015

Temp ( °F °C ) Dew Point ( °F °C ) Humidity (%) Winds ( mph kmh ) Pressure ( in mb ) Visibility ( mi km ) Precip ( " mm )
12:53 am 00:53 Clear 35 1.7 21 -6.1 57 57 SSW 12 19 30.00 1016 10 16 0.00 0.00
1:53 am 01:53 Clear 36 2.2 22 -5.6 57 57 SW 13 20 29.97 1015 10 16 0.00 0.00
2:53 am 02:53 Clear 36 2.2 22 -5.6 57 57 SSW 14 22 29.97 1015 10 16 0.00 0.00
3:53 am 03:53 Clear 36 2.2 23 -5 59 59 SSW 14 22 29.96 1015 10 16 0.00 0.00
4:53 am 04:53 Clear 39 3.9 24 -4.4 55 55 SSW 15 24 29.94 1014 10 16 0.00 0.00
5:53 am 05:53 Clear 38 3.3 24 -4.4 57 57 SSW 15 24 29.95 1014 10 16 0.00 0.00
6:53 am 06:53 Clear 36 2.2 24 -4.4 62 62 SSW 15 24 29.96 1015 10 16 0.00 0.00
7:53 am 07:53 Sunny 36 2.2 25 -3.9 64 64 SSW 15 24 29.99 1016 10 16 0.00 0.00
8:53 am 08:53 Sunny 41 5 26 -3.3 55 55 SSW 13 20 30.00 1016 10 16 0.00 0.00
9:53 am 09:53 Sunny 48 8.9 26 -3.3 42 42 SW 17 28 29.97 1015 10 16 0.00 0.00
10:53 am 10:53 Sunny 53 11.7 25 -3.9 34 34 SW 20 31 29.95 1014 10 16 0.00 0.00
11:53 am 11:53 Sunny 57 13.9 24 -4.4 28 28 SW 18 30 29.93 1014 10 16 0.00 0.00
12:53 pm 12:53 Sunny 61 16 25 -4 25 25 SW 22 35 29.77 1008 10 16 0.00 0.00
1:53 pm 13:53 Sunny 61 16.1 22 -5.6 22 22 WSW 23 37 29.88 1012 10 16 0.00 0.00
2:53 pm 14:53 Sunny 62 16.7 19 -7.2 19 19 SW 23 37 29.85 1011 10 16 0.00 0.00
3:53 pm 15:53 Sunny 59 15 17 -8.3 19 19 WSW 22 35 29.84 1011 10 16 0.00 0.00
4:53 pm 16:53 Sunny 55 12.8 19 -7.2 24 24 SW 22 35 29.84 1011 10 16 0.00 0.00
5:53 pm 17:53 Sunny 55 12.8 20 -6.7 25 25 SW 17 28 29.84 1011 10 16 0.00 0.00
6:53 pm 18:53 Sunny 52 11.1 20 -6.7 28 28 SW 14 22 29.85 1011 10 16 0.00 0.00
7:53 pm 19:53 Clear 43 6.1 20 -6.7 40 40 SW 12 19 29.89 1012 10 16 0.00 0.00
8:53 pm 20:53 Clear 40 4.4 21 -6.1 47 47 SW 13 20 29.90 1013 10 16 0.00 0.00
9:53 pm 21:53 Clear 37 2.8 21 -6.1 52 52 SW 13 20 29.91 1013 10 16 0.00 0.00
10:53 pm 22:53 Clear 38 3.3 21 -6.1 51 51 WSW 10 17 29.91 1013 10 16 0.00 0.00
11:53 pm 23:53 Clear 38 3.3 20 -6.7 48 48 SW 8 13 29.92 1013 10 16 0.00 0.00

Powered by AerisWeather